Weather History for KISN - September, 2013

Change the Weather History Date:

Saturday, September 14, 2013

  Actual Average Record
Temperature  
Mean Temperature 64 °F 57 °F  
Max Temperature 77 °F 72 °F 94 °F (1946)
Min Temperature 51 °F 43 °F 22 °F (2007)
Degree Days  
Heating Degree Days 1 8  
Month to date heating degree days 8 84  
Since 1 July heating degree days 54 155  
Cooling Degree Days 0 1  
Month to date cooling degree days 68 21  
Year to date cooling degree days 395 450  
Growing Degree Days 14 (Base 50)    
Moisture  
Dew Point 53 °F    
Average Humidity 66    
Maximum Humidity 93    
Minimum Humidity 38    
Precipitation  
Precipitation 0.00 in 0.04 in 0.83 in (1927)
Month to date precipitation 1.32 0.52  
Year to date precipitation 17.21 11.64  
Snow  
Snow 0.00 in 0.00 in T in (1915)
Month to date snowfall 0.0 0.0  
Since 1 July snowfall 0.0 0.0  
Since 1 September snowfall 0.0 0.0  
Snow Depth 0.00 in    
Sea Level Pressure  
Sea Level Pressure 29.86 in    
Wind  
Wind Speed 8 mph (NE)    
Max Wind Speed 26 mph    
Max Gust Speed 32 mph    
Visibility 10 miles    
Events Rain    
T = Trace of Precipitation, MM = Missing Value Source: NWS Daily Summary

Daily Weather History Graph

Daily Weather History Graph

Search for Another Location

Airport or City:

Trip Planner

Search our weather history database for the weather conditions in past years. The results will help you decide how hot, cold, wet, or windy it might be!

Date:

Astronomy

Sep. 14, 2013 Rise Set
Actual Time 7:30 AM CDT 8:08 PM CDT
Civil Twilight 6:59 AM CDT 8:39 PM CDT
Nautical Twilight 6:21 AM CDT 9:16 PM CDT
Astronomical Twilight 5:42 AM CDT 9:55 PM CDT
Moon 5:08 PM CDT (9/14) 1:45 AM CDT (9/14)
Length of Visible Light 13h 40m
Length of Day
12h 37m
Waxing Gibbous, 72% of the Moon is Illuminated
Sep 14
Waxing Gibbous
Sep 19
Full
Sep 26
Last Quarter
Oct 4
New
Oct 11
First Quarter

Hourly Weather History & Observations

Time (CDT) Temp. Dew Point Humidity Pressure Visibility Wind Dir Wind Speed Gust Speed Precip Events Conditions
12:52 AM 68.0 °F 54.0 °F 61% 29.77 in 10.0 mi South 3.5 mph - N/A   Clear
1:52 AM 66.9 °F 55.0 °F 66% 29.75 in 10.0 mi South 3.5 mph - N/A   Clear
2:52 AM 66.0 °F 55.0 °F 68% 29.75 in 10.0 mi South 4.6 mph - N/A   Clear
3:52 AM 64.0 °F 55.0 °F 73% 29.74 in 10.0 mi Calm Calm - N/A   Clear
4:52 AM 64.0 °F 55.9 °F 75% 29.73 in 10.0 mi South 3.5 mph - N/A   Clear
5:52 AM 60.1 °F 55.9 °F 86% 29.74 in 10.0 mi Calm Calm - N/A   Clear
6:52 AM 57.9 °F 55.0 °F 90% 29.75 in 10.0 mi Calm Calm - N/A   Clear
7:52 AM 57.9 °F 55.9 °F 93% 29.76 in 7.0 mi North 3.5 mph - N/A   Clear
8:52 AM 62.1 °F 57.9 °F 86% 29.77 in 6.0 mi Calm Calm - N/A   Clear
9:52 AM 64.0 °F 57.0 °F 78% 29.78 in 10.0 mi North 3.5 mph - N/A   Clear
10:52 AM 64.9 °F 57.9 °F 78% 29.80 in 10.0 mi NE 3.5 mph - N/A   Clear
11:52 AM 71.1 °F 60.1 °F 68% 29.81 in 10.0 mi NE 5.8 mph - N/A   Clear
12:52 PM 75.9 °F 59.0 °F 56% 29.81 in 10.0 mi NNE 16.1 mph - N/A   Clear
1:52 PM 77.0 °F 57.9 °F 52% 29.83 in 10.0 mi NNE 17.3 mph 24.2 mph N/A   Clear
2:52 PM 75.9 °F 57.0 °F 52% 29.86 in 10.0 mi NNE 17.3 mph 24.2 mph N/A   Partly Cloudy
3:52 PM 71.1 °F 52.0 °F 51% 29.90 in 10.0 mi NNE 20.7 mph 29.9 mph N/A   Mostly Cloudy
4:52 PM 72.0 °F 51.1 °F 48% 29.94 in 10.0 mi NE 19.6 mph 29.9 mph N/A   Clear
5:52 PM 73.0 °F 48.9 °F 42% 29.97 in 10.0 mi NE 16.1 mph 21.9 mph N/A   Scattered Clouds
6:52 PM 71.1 °F 45.0 °F 39% 30.00 in 10.0 mi NE 13.8 mph 21.9 mph N/A   Clear
7:52 PM 66.9 °F 46.9 °F 49% 30.02 in 10.0 mi ENE 8.1 mph - 0.00 in Rain Light Rain
8:52 PM 62.1 °F 46.0 °F 56% 30.04 in 10.0 mi NE 4.6 mph - 0.00 in   Clear
9:52 PM 55.0 °F 46.9 °F 74% 30.07 in 10.0 mi NNE 3.5 mph - N/A   Clear
10:52 PM 52.0 °F 46.0 °F 80% 30.10 in 10.0 mi NNW 6.9 mph - N/A   Clear
11:52 PM 55.9 °F 46.9 °F 72% 30.13 in 10.0 mi North 8.1 mph - N/A   Clear